Total_Precipitation_Accumulation
0.28 0.42 0.98 1.20 1.25 1.27 1.26 1.21 1.09 1.03 1.02 1.15 1.23 1.21 1.12 1.06 1.09 1.10 1.10 1.13 1.24 1.50 1.71 1.78 1.68 1.64 1.48 1.34 1.17 0.92 0.80 0.69 0.63 0.58 0.58 0.69 0.78 0.79 0.65 0.62 0.64 0.62 0.87
0.27 0.38 0.89 1.24 1.33 1.33 1.35 1.27 1.07 0.96 0.98 1.08 1.24 1.29 1.27 1.17 1.12 1.18 1.22 1.24 1.45 1.60 1.67 1.73 1.58 1.48 1.35 1.15 0.92 0.70 0.60 0.46 0.39 0.32 0.29 0.40 0.61 0.75 0.65 0.61 0.63 0.76 0.83
0.31 0.43 0.80 1.24 1.44 1.46 1.44 1.33 1.14 1.00 1.01 1.03 1.18 1.32 1.39 1.32 1.28 1.29 1.35 1.43 1.54 1.54 1.52 1.53 1.48 1.34 1.11 0.91 0.77 0.61 0.50 0.38 0.32 0.26 0.27 0.40 0.56 0.81 0.81 0.72 0.73 0.87 0.84
0.38 0.51 0.81 1.27 1.51 1.56 1.46 1.35 1.24 1.13 1.05 1.02 1.09 1.24 1.36 1.41 1.43 1.41 1.44 1.57 1.52 1.44 1.42 1.36 1.19 1.09 0.96 0.79 0.69 0.62 0.49 0.37 0.30 0.26 0.35 0.45 0.56 1.01 1.12 0.99 0.92 0.92 0.83
0.46 0.63 1.00 1.47 1.64 1.66 1.55 1.46 1.38 1.24 1.10 1.10 1.13 1.13 1.22 1.34 1.47 1.60 1.62 1.62 1.53 1.34 1.30 1.26 1.07 0.96 0.92 0.85 0.73 0.62 0.51 0.37 0.25 0.28 0.39 0.49 0.69 1.27 1.22 1.09 1.01 0.97 0.86
0.64 0.87 1.19 1.57 1.70 1.69 1.64 1.59 1.55 1.38 1.25 1.31 1.30 1.24 1.20 1.26 1.38 1.56 1.63 1.56 1.48 1.35 1.29 1.19 1.06 0.96 0.90 0.82 0.77 0.65 0.51 0.35 0.25 0.29 0.38 0.47 0.68 1.21 1.16 1.00 0.97 0.96 0.91
0.88 1.10 1.35 1.64 1.77 1.75 1.72 1.71 1.68 1.64 1.59 1.56 1.50 1.35 1.28 1.25 1.28 1.36 1.38 1.33 1.38 1.36 1.26 1.22 1.11 1.03 0.94 0.82 0.78 0.65 0.51 0.31 0.24 0.31 0.36 0.48 0.78 1.20 1.19 1.06 1.05 1.04 1.02
1.17 1.35 1.54 1.83 1.94 1.88 1.78 1.74 1.79 1.88 1.87 1.77 1.67 1.53 1.37 1.34 1.31 1.24 1.20 1.16 1.26 1.31 1.29 1.22 1.11 1.02 0.96 0.86 0.78 0.68 0.49 0.28 0.23 0.25 0.30 0.49 0.83 1.16 1.19 1.05 1.03 1.06 1.07
1.58 1.73 1.93 2.01 1.96 1.99 1.93 1.88 1.86 1.92 1.93 1.87 1.72 1.64 1.49 1.41 1.32 1.20 1.11 1.15 1.18 1.22 1.23 1.15 1.10 0.99 0.91 0.82 0.68 0.58 0.43 0.28 0.24 0.25 0.29 0.48 0.83 1.24 1.24 1.07 0.99 0.99 1.01
2.10 2.21 2.34 2.39 2.23 2.13 2.03 1.96 1.89 1.84 1.94 1.99 1.83 1.56 1.36 1.31 1.32 1.22 1.03 1.11 1.18 1.16 1.17 1.09 1.06 1.01 0.85 0.72 0.61 0.53 0.40 0.30 0.26 0.26 0.36 0.53 0.82 1.18 1.23 1.10 1.07 1.04 1.03
2.60 2.63 2.64 2.69 2.64 2.51 2.36 2.09 2.04 1.96 1.99 1.93 1.78 1.57 1.42 1.38 1.27 1.15 0.90 0.90 1.07 1.10 1.10 1.07 0.99 0.94 0.81 0.66 0.59 0.48 0.38 0.31 0.32 0.35 0.40 0.61 0.90 1.08 1.18 1.13 1.09 1.08 1.08
2.74 2.89 2.90 2.92 2.90 2.82 2.66 2.48 2.30 2.09 2.06 1.91 1.66 1.54 1.52 1.42 1.31 1.11 0.98 0.90 1.01 1.04 1.09 1.11 1.04 0.93 0.79 0.64 0.63 0.54 0.42 0.37 0.39 0.39 0.45 0.66 0.93 1.06 1.10 1.10 1.10 1.08 1.06
2.98 3.22 3.29 3.30 3.33 3.35 3.10 2.80 2.61 2.33 2.09 2.07 1.81 1.66 1.57 1.60 1.56 1.44 1.22 1.09 1.11 1.03 1.02 1.08 1.04 0.86 0.70 0.59 0.56 0.49 0.46 0.45 0.42 0.43 0.50 0.60 0.84 1.04 1.06 1.08 1.11 1.14 1.18
3.19 3.45 3.77 3.80 3.74 3.73 3.49 3.14 2.82 2.56 2.26 2.11 2.05 1.90 1.75 1.66 1.58 1.51 1.30 1.11 1.07 0.97 0.94 1.04 1.02 0.87 0.78 0.62 0.58 0.55 0.53 0.50 0.46 0.46 0.51 0.55 0.68 0.97 1.14 1.24 1.22 1.17 1.28
3.09 3.46 3.90 3.99 3.86 3.77 3.58 3.28 2.93 2.73 2.46 2.28 2.32 2.24 2.00 1.79 1.69 1.64 1.54 1.32 1.19 1.05 0.94 0.95 1.07 1.01 0.96 0.88 0.73 0.62 0.59 0.56 0.51 0.47 0.46 0.51 0.58 0.83 1.09 1.25 1.29 1.36 1.41
3.11 3.33 3.76 3.97 3.85 3.78 3.60 3.28 2.94 2.68 2.51 2.43 2.28 2.19 2.16 1.96 1.85 1.82 1.70 1.48 1.31 1.17 1.03 0.94 0.99 1.08 1.06 1.02 0.95 0.82 0.74 0.66 0.58 0.53 0.48 0.50 0.56 0.67 0.91 1.10 1.23 1.41 1.63
3.12 3.39 3.58 3.87 4.02 3.80 3.69 3.37 3.02 2.86 2.61 2.44 2.33 2.17 2.14 2.08 1.98 1.98 1.87 1.62 1.47 1.41 1.28 1.19 1.17 1.18 1.13 1.01 0.94 0.93 0.89 0.77 0.67 0.63 0.57 0.54 0.54 0.60 0.76 0.99 1.14 1.34 1.57
3.15 3.43 3.55 3.70 3.90 3.85 3.78 3.63 3.16 2.90 2.79 2.59 2.47 2.33 2.18 2.14 2.14 2.17 2.05 1.81 1.77 1.83 1.68 1.49 1.40 1.30 1.16 1.07 0.99 0.99 0.96 0.91 0.76 0.69 0.65 0.60 0.57 0.59 0.73 0.97 1.10 1.22 1.38
3.04 3.38 3.59 3.67 3.78 3.98 3.94 3.86 3.70 3.31 2.91 2.82 2.76 2.50 2.22 2.15 2.18 2.19 2.16 2.06 2.05 2.07 1.99 1.79 1.67 1.59 1.38 1.24 1.16 1.15 1.16 1.12 1.03 0.88 0.78 0.77 0.73 0.72 0.86 1.08 1.17 1.18 1.19
3.02 3.36 3.62 3.68 3.68 4.00 4.27 4.21 4.04 3.81 3.23 2.85 2.77 2.62 2.38 2.22 2.17 2.16 2.11 2.20 2.25 2.22 2.16 2.09 1.92 1.83 1.71 1.59 1.50 1.38 1.37 1.33 1.22 1.03 0.91 0.88 0.88 0.88 0.99 1.07 1.10 1.18 1.19
2.90 3.20 3.47 3.58 3.58 3.70 3.97 4.01 3.83 3.63 3.42 3.02 2.73 2.69 2.61 2.47 2.45 2.35 2.16 2.21 2.33 2.22 2.09 2.16 2.22 2.19 2.08 1.93 1.86 1.69 1.59 1.47 1.35 1.13 0.97 0.93 0.95 0.98 1.02 1.06 1.08 1.00 0.90
2.55 2.96 3.25 3.45 3.63 3.56 3.48 3.64 3.69 3.66 3.52 3.28 3.01 2.91 2.75 2.61 2.54 2.53 2.49 2.41 2.48 2.43 2.30 2.22 2.27 2.35 2.25 2.20 2.16 2.07 1.88 1.74 1.48 1.23 1.09 1.00 0.98 1.02 1.04 1.03 1.00 0.98 0.86
2.23 2.57 2.90 3.17 3.44 3.63 3.62 3.80 3.87 3.82 3.66 3.37 3.06 2.87 2.76 2.71 2.65 2.56 2.58 2.58 2.56 2.59 2.49 2.35 2.29 2.32 2.34 2.26 2.19 2.31 2.05 1.72 1.48 1.34 1.17 1.07 1.04 1.05 1.08 1.10 1.04 0.99 0.93
1.98 2.25 2.51 2.89 3.22 3.50 3.67 3.65 3.66 3.60 3.35 3.07 2.98 3.05 2.94 2.74 2.64 2.64 2.58 2.57 2.60 2.57 2.52 2.54 2.52 2.37 2.37 2.37 2.29 2.12 1.92 1.66 1.57 1.47 1.33 1.24 1.16 1.09 1.11 1.13 1.09 1.02 0.99
1.76 2.05 2.24 2.52 2.86 3.12 3.19 3.22 3.34 3.39 3.28 3.12 3.10 3.10 3.07 2.81 2.56 2.51 2.53 2.50 2.49 2.51 2.51 2.54 2.59 2.60 2.49 2.38 2.29 2.20 2.09 1.84 1.65 1.62 1.51 1.43 1.41 1.28 1.19 1.16 1.15 1.13 1.08
1.45 1.77 2.04 2.15 2.40 2.65 2.77 2.86 2.98 2.97 3.01 3.01 2.97 3.03 3.07 2.91 2.63 2.47 2.43 2.39 2.37 2.40 2.40 2.46 2.53 2.61 2.57 2.41 2.28 2.11 2.06 1.95 1.78 1.74 1.61 1.45 1.49 1.41 1.32 1.26 1.21 1.22 1.25